Tracking 26492 objects as of 8-Dec-2022
HD Live streaming from Space Station
objects crossing your sky now

STARLINK-4556

Track STARLINK-4556 now!
10-day predictions
STARLINK-4556 is classified as:


NORAD ID: 53578
Int'l Code: 2022-101BD
Perigee: 545.3 km
Apogee: 548.4 km
Inclination: 53.2 °
Period: 95.4 minutes
Semi major axis: 6917 km
RCS: Unknown
Launch date: August 19, 2022
Source: United States (US)
Launch site: AIR FORCE EASTERN TEST RANGE (AFETR)
aabbcc
Your satellite tracking list
Your tracking list is empty




NASA's NSSDC Master Catalog

Two Line Element Set (TLE):
1 53578U 22101BD  22342.02691885 -.00000050  00000-0  14954-4 0  9999
2 53578  53.2198 345.3777 0002234  34.8864 325.2275 15.08845303 17155
Source of the keplerian elements: AFSPC